| time (UTC) | temp F | wind direction | speed knots | gust knots | rain 1hr in | rain 24hr in | rain mn in | humidity % | barometer mb |
| 20260510015047 | 71 | 309 | 0.0 | 0.0 | 0.00 | 0.19 | 0.17 | 95 | 1013.4 |
| 20260510014546 | 71 | 309 | 0.0 | 0.0 | 0.00 | 0.19 | 0.17 | 95 | 1013.4 |
| 20260510014045 | 71 | 309 | 0.0 | 0.0 | 0.00 | 0.19 | 0.17 | 95 | 1013.3 |
| 20260510013547 | 71 | 309 | 0.0 | 0.0 | 0.00 | 0.19 | 0.17 | 95 | 1013.1 |
| 20260510013049 | 71 | 309 | 0.0 | 0.0 | 0.00 | 0.19 | 0.17 | 95 | 1013.3 |
| 20260510012547 | 71 | 309 | 0.0 | 0.0 | 0.00 | 0.19 | 0.17 | 95 | 1013.1 |
| 20260510012142 | 71 | 309 | 0.0 | 0.0 | 0.00 | 0.19 | 0.17 | 95 | 1013.2 |
| 20260510011542 | 71 | 309 | 0.0 | 0.0 | 0.00 | 0.19 | 0.17 | 95 | 1013.2 |
| 20260510011046 | 71 | 309 | 0.0 | 0.0 | 0.01 | 0.19 | 0.17 | 95 | 1013.0 |
| 20260510010537 | 71 | 309 | 0.0 | 0.0 | 0.01 | 0.19 | 0.17 | 95 | 1013.0 |
| 20260510010037 | 71 | 309 | 0.0 | 0.0 | 0.01 | 0.19 | 0.17 | 95 | 1013.1 |
| 20260510005537 | 71 | 309 | 0.0 | 0.0 | 0.02 | 0.19 | 0.17 | 95 | 1013.1 |
| 20260510005039 | 71 | 309 | 0.0 | 0.0 | 0.02 | 0.19 | 0.17 | 95 | 1012.9 |
| 20260510004533 | 71 | 309 | 0.0 | 0.0 | 0.02 | 0.19 | 0.17 | 95 | 1013.1 |
| 20260510004037 | 71 | 309 | 0.0 | 0.0 | 0.02 | 0.19 | 0.17 | 95 | 1012.9 |
| 20260510003537 | 71 | 309 | 0.0 | 0.0 | 0.02 | 0.19 | 0.17 | 95 | 1012.9 |
| 20260510003033 | 71 | 309 | 0.0 | 0.0 | 0.02 | 0.19 | 0.17 | 95 | 1013.1 |
| 20260510002532 | 71 | 309 | 0.0 | 0.0 | 0.02 | 0.19 | 0.17 | 95 | 1013.2 |
| 20260510002035 | 71 | 309 | 0.0 | 0.0 | 0.02 | 0.19 | 0.17 | 95 | 1013.3 |
| 20260510001531 | 71 | 309 | 0.0 | 0.0 | 0.02 | 0.19 | 0.17 | 95 | 1013.3 |
| 20260510001030 | 71 | 309 | 0.0 | 0.0 | 0.01 | 0.18 | 0.16 | 95 | 1013.5 |
| 20260510000531 | 71 | 309 | 0.0 | 0.0 | 0.01 | 0.18 | 0.16 | 95 | 1013.5 |
| 20260510000029 | 71 | 309 | 0.0 | 0.0 | 0.01 | 0.18 | 0.16 | 95 | 1013.4 |
| 20260509235531 | 71 | 309 | 0.0 | 0.0 | 0.00 | 0.17 | 0.15 | 94 | 1013.5 |
| 20260509235028 | 71 | 309 | 0.0 | 0.0 | 0.00 | 0.17 | 0.15 | 94 | 1013.5 |
| 20260509234536 | 71 | 309 | 0.0 | 0.9 | 0.00 | 0.17 | 0.15 | 94 | 1013.5 |
| 20260509234027 | 71 | 309 | 0.0 | 0.9 | 0.00 | 0.17 | 0.15 | 94 | 1013.3 |
| 20260509233529 | 72 | 343 | 0.0 | 0.0 | 0.00 | 0.17 | 0.15 | 94 | 1013.2 |
| 20260509233025 | 71 | 343 | 0.0 | 0.0 | 0.00 | 0.17 | 0.15 | 94 | 1013.2 |
| 20260509232524 | 72 | 343 | 0.0 | 0.0 | 0.00 | 0.17 | 0.15 | 94 | 1013.4 |
| 20260509232027 | 72 | 342 | 0.0 | 0.0 | 0.00 | 0.17 | 0.15 | 94 | 1013.2 |
| 20260509231528 | 72 | 343 | 0.0 | 0.0 | 0.00 | 0.17 | 0.15 | 94 | 1013.2 |
| 20260509231021 | 72 | 342 | 0.0 | 0.9 | 0.00 | 0.17 | 0.15 | 94 | 1013.4 |
| 20260509230520 | 72 | 343 | 0.0 | 0.9 | 0.00 | 0.17 | 0.15 | 94 | 1013.2 |
| 20260509230035 | 72 | 345 | 0.0 | 1.7 | 0.01 | 0.17 | 0.15 | 94 | 1013.2 |
| 20260509225518 | 72 | 321 | 0.0 | 1.7 | 0.01 | 0.17 | 0.15 | 94 | 1013.1 |
| 20260509225017 | 72 | 337 | 0.0 | 1.7 | 0.02 | 0.17 | 0.15 | 94 | 1013.1 |
| 20260509224518 | 72 | 337 | 0.0 | 1.7 | 0.02 | 0.17 | 0.15 | 94 | 1013.1 |
| 20260509224015 | 73 | 170 | 0.0 | 0.9 | 0.02 | 0.17 | 0.15 | 94 | 1013.1 |
| 20260509223522 | 73 | 356 | 0.0 | 0.9 | 0.02 | 0.17 | 0.15 | 94 | 1013.1 |
| 20260509223019 | 73 | 357 | 0.0 | 0.9 | 0.02 | 0.17 | 0.15 | 94 | 1013.0 |
| 20260509222513 | 73 | 357 | 0.0 | 0.9 | 0.02 | 0.17 | 0.15 | 94 | 1013.1 |
| 20260509222017 | 73 | 358 | 0.0 | 0.9 | 0.02 | 0.17 | 0.15 | 94 | 1013.1 |
| 20260509221513 | 73 | 357 | 0.0 | 0.9 | 0.02 | 0.17 | 0.15 | 94 | 1013.1 |
| 20260509221015 | 73 | 255 | 0.0 | 0.9 | 0.02 | 0.17 | 0.15 | 94 | 1013.0 |
| 20260509220511 | 73 | 255 | 0.0 | 0.9 | 0.01 | 0.16 | 0.14 | 94 | 1013.0 |
| 20260509220014 | 73 | 255 | 0.0 | 1.7 | 0.01 | 0.16 | 0.14 | 94 | 1013.1 |
| 20260509215516 | 73 | 324 | 0.0 | 1.7 | 0.01 | 0.16 | 0.14 | 94 | 1013.0 |
| 20260509215011 | 73 | 146 | 0.0 | 0.9 | 0.00 | 0.15 | 0.13 | 94 | 1013.0 |
| 20260509214510 | 73 | 208 | 0.0 | 0.9 | 0.00 | 0.15 | 0.13 | 94 | 1012.9 |
| 20260509214017 | 74 | 334 | 0.0 | 0.9 | 0.00 | 0.15 | 0.13 | 94 | 1012.7 |
| 20260509213510 | 74 | 155 | 0.0 | 0.0 | 0.00 | 0.15 | 0.13 | 94 | 1012.8 |
| 20260509213008 | 74 | 259 | 0.0 | 0.9 | 0.00 | 0.15 | 0.13 | 93 | 1012.9 |
| 20260509212608 | 74 | 259 | 0.0 | 0.9 | 0.00 | 0.15 | 0.13 | 93 | 1012.8 |
| 20260509212007 | 74 | 108 | 0.0 | 0.9 | 0.00 | 0.15 | 0.13 | 94 | 1012.8 |
| 20260509211508 | 74 | 252 | 0.0 | 1.7 | 0.00 | 0.15 | 0.13 | 94 | 1012.9 |
| 20260509211007 | 74 | 326 | 0.0 | 1.7 | 0.00 | 0.15 | 0.13 | 94 | 1012.9 |
| 20260509210506 | 75 | 235 | 0.0 | 0.0 | 0.00 | 0.15 | 0.13 | 94 | 1012.8 |
| 20260509210004 | 74 | 235 | 0.0 | 0.9 | 0.00 | 0.15 | 0.13 | 94 | 1012.7 |
| 20260509205503 | 74 | 235 | 0.0 | 1.7 | 0.00 | 0.15 | 0.13 | 93 | 1012.6 |
| 20260509205005 | 75 | 233 | 0.0 | 1.7 | 0.00 | 0.15 | 0.13 | 93 | 1012.7 |
| 20260509204504 | 75 | 205 | 0.0 | 0.9 | 0.00 | 0.15 | 0.13 | 93 | 1012.6 |
| 20260509204002 | 75 | 269 | 0.0 | 0.9 | 0.07 | 0.15 | 0.13 | 93 | 1012.6 |
| 20260509203601 | 75 | 269 | 0.0 | 0.9 | 0.09 | 0.15 | 0.13 | 93 | 1012.7 |
| 20260509203100 | 75 | 282 | 0.0 | 0.9 | 0.09 | 0.15 | 0.13 | 93 | 1012.7 |
| 20260509203008 | 75 | 239 | 0.0 | 0.0 | 0.09 | 0.15 | 0.13 | 93 | 1012.7 |
| 20260509202502 | 75 | 225 | 0.0 | 0.0 | 0.09 | 0.15 | 0.13 | 93 | 1012.6 |
| 20260509202102 | 75 | 225 | 0.0 | 0.0 | 0.09 | 0.15 | 0.13 | 93 | 1012.6 |
| 20260509201600 | 75 | 225 | 0.0 | 0.0 | 0.10 | 0.15 | 0.13 | 93 | 1012.5 |
| 20260509201001 | 75 | 229 | 0.0 | 0.0 | 0.10 | 0.15 | 0.13 | 93 | 1012.6 |
| 20260509200557 | 75 | 229 | 0.0 | 0.9 | 0.10 | 0.15 | 0.13 | 93 | 1012.5 |
| 20260509200108 | 75 | 229 | 0.0 | 0.9 | 0.10 | 0.15 | 0.13 | 93 | 1012.7 |
| 20260509200003 | 75 | 229 | 0.0 | 0.9 | 0.10 | 0.15 | 0.13 | 92 | 1012.7 |
| 20260509195558 | 75 | 245 | 0.0 | 0.9 | 0.10 | 0.15 | 0.13 | 92 | 1012.5 |
| 20260509195055 | 75 | 311 | 0.0 | 1.7 | 0.11 | 0.15 | 0.13 | 91 | 1012.5 |
| 20260509194555 | 76 | 228 | 0.0 | 1.7 | 0.11 | 0.15 | 0.13 | 91 | 1012.4 |
| 20260509194057 | 76 | 299 | 0.0 | 0.9 | 0.06 | 0.10 | 0.08 | 90 | 1012.8 |
| 20260509193607 | 77 | 258 | 0.0 | 0.9 | 0.03 | 0.06 | 0.04 | 90 | 1012.7 |
| 20260509192558 | 77 | 260 | 0.0 | 0.9 | 0.03 | 0.06 | 0.04 | 90 | 1012.7 |
| 20260509192058 | 77 | 266 | 0.0 | 0.9 | 0.03 | 0.06 | 0.04 | 90 | 1012.7 |
| 20260509191550 | 77 | 266 | 0.0 | 0.9 | 0.02 | 0.05 | 0.03 | 90 | 1012.7 |
| 20260509191053 | 78 | 266 | 0.0 | 0.0 | 0.02 | 0.05 | 0.03 | 90 | 1012.6 |
| 20260509190546 | 78 | 265 | 0.0 | 0.0 | 0.02 | 0.05 | 0.03 | 90 | 1012.5 |
| 20260509190056 | 78 | 269 | 0.0 | 0.0 | 0.02 | 0.05 | 0.03 | 90 | 1012.6 |
| 20260509185548 | 78 | 269 | 0.0 | 0.0 | 0.02 | 0.05 | 0.03 | 89 | 1012.7 |
| 20260509184614 | 78 | 269 | 0.0 | 0.0 | 0.01 | 0.04 | 0.02 | 87 | 1012.6 |
| 20260509184045 | 79 | 269 | 0.0 | 0.0 | 0.01 | 0.04 | 0.02 | 87 | 1012.7 |
| 20260509183547 | 79 | 269 | 0.0 | 1.7 | 0.00 | 0.03 | 0.01 | 86 | 1012.7 |
| 20260509183042 | 79 | 256 | 0.0 | 1.7 | 0.00 | 0.03 | 0.01 | 85 | 1012.8 |
| 20260509182546 | 80 | 265 | 0.0 | 0.9 | 0.00 | 0.03 | 0.01 | 85 | 1013.0 |
| 20260509182044 | 80 | 266 | 0.0 | 2.6 | 0.00 | 0.03 | 0.01 | 84 | 1012.7 |
| 20260509181547 | 80 | 248 | 0.0 | 2.6 | 0.00 | 0.03 | 0.01 | 83 | 1013.0 |
| 20260509181040 | 80 | 255 | 0.0 | 1.7 | 0.00 | 0.03 | 0.01 | 83 | 1013.0 |
| 20260509180539 | 81 | 171 | 0.0 | 1.7 | 0.00 | 0.03 | 0.01 | 82 | 1013.0 |
| 20260509180037 | 81 | 260 | 0.0 | 1.7 | 0.00 | 0.03 | 0.01 | 82 | 1013.0 |
| 20260509175541 | 81 | 236 | 0.0 | 2.6 | 0.00 | 0.03 | 0.01 | 82 | 1013.0 |
| 20260509175036 | 82 | 242 | 0.9 | 2.6 | 0.00 | 0.03 | 0.01 | 83 | 1013.0 |
| 20260509174538 | 82 | 231 | 0.0 | 2.6 | 0.00 | 0.03 | 0.01 | 81 | 1013.0 |
| 20260509174035 | 82 | 321 | 0.0 | 2.6 | 0.00 | 0.03 | 0.01 | 83 | 1013.1 |
| 20260509173536 | 82 | 252 | 0.9 | 2.6 | 0.00 | 0.03 | 0.01 | 82 | 1013.1 |
| 20260509173036 | 82 | 237 | 0.0 | 2.6 | 0.00 | 0.03 | 0.01 | 84 | 1013.1 |
| 20260509172531 | 81 | 274 | 0.0 | 2.6 | 0.00 | 0.03 | 0.01 | 84 | 1013.1 |
| 20260509172031 | 81 | 228 | 0.0 | 2.6 | 0.00 | 0.03 | 0.01 | 84 | 1013.1 |
| 20260509171532 | 81 | 101 | 0.0 | 1.7 | 0.00 | 0.03 | 0.01 | 83 | 1013.0 |
| 20260509171026 | 81 | 248 | 0.0 | 2.6 | 0.00 | 0.03 | 0.01 | 84 | 1013.0 |
| 20260509170525 | 80 | 292 | 0.0 | 2.6 | 0.00 | 0.03 | 0.01 | 84 | 1013.2 |
| 20260509170029 | 80 | 230 | 0.0 | 2.6 | 0.00 | 0.03 | 0.01 | 84 | 1013.3 |
| 20260509165523 | 80 | 285 | 0.0 | 0.9 | 0.00 | 0.03 | 0.01 | 84 | 1013.2 |
| 20260509165136 | 81 | 241 | 0.0 | 0.9 | 0.00 | 0.03 | 0.01 | 84 | 1013.3 |
| 20260509164518 | 81 | 172 | 0.0 | 0.0 | 0.00 | 0.03 | 0.01 | 84 | 1013.3 |
| 20260509164019 | 80 | 159 | 0.0 | 0.9 | 0.00 | 0.03 | 0.01 | 85 | 1013.4 |
| 20260509163521 | 80 | 113 | 0.0 | 0.9 | 0.00 | 0.03 | 0.01 | 85 | 1013.5 |
| 20260509163014 | 80 | 112 | 0.0 | 0.9 | 0.00 | 0.03 | 0.01 | 86 | 1013.6 |
| 20260509162514 | 79 | 244 | 0.0 | 1.7 | 0.00 | 0.03 | 0.01 | 85 | 1013.5 |
| 20260509162015 | 79 | 185 | 0.0 | 1.7 | 0.00 | 0.03 | 0.01 | 86 | 1013.4 |
| 20260509161510 | 78 | 222 | 0.0 | 1.7 | 0.00 | 0.03 | 0.01 | 86 | 1013.6 |
| 20260509161009 | 78 | 115 | 0.0 | 1.7 | 0.00 | 0.03 | 0.01 | 86 | 1013.5 |
| 20260509160509 | 78 | 244 | 0.0 | 1.7 | 0.00 | 0.03 | 0.01 | 86 | 1013.6 |
| 20260509160010 | 79 | 247 | 0.0 | 0.9 | 0.00 | 0.03 | 0.01 | 87 | 1013.7 |
| 20260509155513 | 78 | 242 | 0.0 | 1.7 | 0.00 | 0.03 | 0.01 | 86 | 1013.5 |
| 20260509155007 | 78 | 259 | 0.0 | 2.6 | 0.00 | 0.03 | 0.01 | 86 | 1013.6 |
| 20260509154506 | 78 | 255 | 0.0 | 2.6 | 0.00 | 0.03 | 0.01 | 86 | 1013.7 |
| 20260509154008 | 79 | 214 | 0.0 | 0.9 | 0.00 | 0.03 | 0.01 | 87 | 1013.6 |
| 20260509153604 | 78 | 165 | 0.0 | 0.9 | 0.00 | 0.03 | 0.01 | 86 | 1013.5 |
| 20260509153004 | 78 | 150 | 0.0 | 0.9 | 0.00 | 0.03 | 0.01 | 87 | 1013.4 |
| 20260509152510 | 78 | 103 | 0.0 | 0.9 | 0.00 | 0.03 | 0.01 | 87 | 1013.3 |
| 20260509152105 | 78 | 103 | 0.0 | 0.9 | 0.00 | 0.03 | 0.01 | 87 | 1013.4 |
| 20260509151503 | 78 | 111 | 0.0 | 0.9 | 0.00 | 0.03 | 0.01 | 87 | 1013.5 |
| 20260509151002 | 78 | 143 | 0.0 | 0.9 | 0.00 | 0.03 | 0.01 | 87 | 1013.5 |
| 20260509150600 | 78 | 314 | 0.0 | 1.7 | 0.00 | 0.03 | 0.01 | 86 | 1013.5 |
| 20260509145558 | 78 | 193 | 0.0 | 0.9 | 0.00 | 0.03 | 0.01 | 87 | 1013.9 |
| 20260509145058 | 78 | 271 | 0.0 | 1.7 | 0.00 | 0.03 | 0.01 | 88 | 1013.7 |
| 20260509144600 | 77 | 217 | 0.0 | 1.7 | 0.00 | 0.03 | 0.01 | 87 | 1013.7 |
| 20260509144048 | 77 | 245 | 0.0 | 3.5 | 0.00 | 0.03 | 0.01 | 88 | 1013.6 |
| 20260509143549 | 77 | 122 | 0.0 | 3.5 | 0.00 | 0.03 | 0.01 | 87 | 1013.5 |
| 20260509143051 | 77 | 245 | 0.0 | 1.7 | 0.00 | 0.03 | 0.01 | 88 | 1013.6 |
| 20260509142544 | 76 | 311 | 0.0 | 1.7 | 0.00 | 0.03 | 0.01 | 88 | 1013.4 |
| 20260509142047 | 76 | 248 | 0.0 | 1.7 | 0.00 | 0.03 | 0.01 | 89 | 1013.4 |
| 20260509141551 | 76 | 289 | 0.0 | 1.7 | 0.00 | 0.03 | 0.01 | 88 | 1013.3 |
| 20260509141045 | 76 | 271 | 0.0 | 1.7 | 0.00 | 0.03 | 0.01 | 89 | 1013.4 |
| 20260509140541 | 76 | 150 | 0.0 | 0.9 | 0.00 | 0.03 | 0.01 | 89 | 1013.6 |
| 20260509140027 | 75 | 167 | 0.0 | 3.5 | 0.00 | 0.03 | 0.01 | 89 | 1013.7 |
| 20260509135524 | 76 | 248 | 0.9 | 2.6 | 0.00 | 0.03 | 0.01 | 89 | 1013.8 |
| 20260509135022 | 76 | 266 | 0.0 | 1.7 | 0.00 | 0.03 | 0.01 | 89 | 1013.9 |
| 20260509134519 | 75 | 237 | 0.0 | 0.9 | 0.00 | 0.03 | 0.01 | 90 | 1013.7 |
| 20260509134018 | 75 | 237 | 0.0 | 1.7 | 0.00 | 0.03 | 0.01 | 90 | 1013.7 |
| 20260509133515 | 75 | 305 | 0.0 | 2.6 | 0.00 | 0.03 | 0.01 | 90 | 1013.6 |
| 20260509133015 | 74 | 248 | 0.0 | 2.6 | 0.00 | 0.03 | 0.01 | 90 | 1013.4 |
| 20260509132513 | 74 | 84 | 0.0 | 1.7 | 0.00 | 0.03 | 0.01 | 90 | 1013.2 |
| 20260509132013 | 74 | 75 | 0.0 | 1.7 | 0.00 | 0.03 | 0.01 | 90 | 1013.2 |
| 20260509131613 | 74 | 61 | 0.0 | 2.6 | 0.00 | 0.03 | 0.01 | 90 | 1013.1 |
| 20260509131048 | 74 | 256 | 0.0 | 2.6 | 0.00 | 0.03 | 0.01 | 91 | 1013.0 |
| 20260509130647 | 73 | 246 | 0.0 | 1.7 | 0.00 | 0.03 | 0.01 | 91 | 1013.0 |
| 20260509130042 | 73 | 215 | 0.0 | 0.9 | 0.00 | 0.03 | 0.01 | 91 | 1013.1 |
| 20260509125531 | 73 | 135 | 0.0 | 4.3 | 0.00 | 0.03 | 0.01 | 92 | 1013.0 |
| 20260509125028 | 72 | 134 | 0.0 | 4.3 | 0.00 | 0.03 | 0.01 | 92 | 1013.0 |
| 20260509124534 | 72 | 294 | 0.0 | 2.6 | 0.00 | 0.03 | 0.01 | 93 | 1012.9 |
| 20260509124024 | 72 | 96 | 0.0 | 2.6 | 0.00 | 0.03 | 0.01 | 93 | 1012.8 |
| 20260509123522 | 71 | 173 | 0.0 | 4.3 | 0.00 | 0.03 | 0.01 | 94 | 1012.6 |
| 20260509123030 | 71 | 219 | 0.0 | 4.3 | 0.00 | 0.03 | 0.01 | 94 | 1012.5 |
| 20260509122518 | 71 | 64 | 0.0 | 1.7 | 0.00 | 0.03 | 0.01 | 95 | 1012.5 |
| 20260509122019 | 70 | 125 | 0.0 | 2.6 | 0.00 | 0.03 | 0.01 | 95 | 1012.5 |
| 20260509121520 | 70 | 139 | 0.0 | 2.6 | 0.00 | 0.03 | 0.01 | 95 | 1012.5 |
| 20260509121018 | 70 | 239 | 0.0 | 0.9 | 0.00 | 0.03 | 0.01 | 95 | 1012.4 |
| 20260509120515 | 69 | 196 | 0.0 | 1.7 | 0.00 | 0.03 | 0.01 | 94 | 1012.3 |
| 20260509120014 | 69 | 300 | 0.0 | 2.6 | 0.00 | 0.03 | 0.01 | 94 | 1012.3 |
| 20260509115512 | 68 | 297 | 0.0 | 0.9 | 0.00 | 0.03 | 0.01 | 94 | 1012.4 |
| 20260509115020 | 68 | 279 | 0.0 | 1.7 | 0.00 | 0.03 | 0.01 | 94 | 1012.4 |
| 20260509114613 | 68 | 268 | 0.0 | 1.7 | 0.00 | 0.03 | 0.01 | 94 | 1012.3 |
| 20260509114016 | 68 | 103 | 0.0 | 0.9 | 0.00 | 0.03 | 0.01 | 94 | 1012.1 |
| 20260509113511 | 67 | 240 | 0.0 | 0.9 | 0.00 | 0.03 | 0.01 | 94 | 1012.2 |
| 20260509113010 | 67 | 240 | 0.0 | 0.9 | 0.00 | 0.03 | 0.01 | 94 | 1012.1 |
| 20260509112511 | 67 | 240 | 0.0 | 0.9 | 0.00 | 0.03 | 0.01 | 94 | 1012.0 |
| 20260509112009 | 67 | 240 | 0.0 | 0.0 | 0.00 | 0.03 | 0.01 | 94 | 1012.0 |
| 20260509111519 | 66 | 222 | 0.0 | 0.0 | 0.00 | 0.03 | 0.01 | 94 | 1012.0 |
| 20260509111010 | 66 | 222 | 0.0 | 0.9 | 0.00 | 0.03 | 0.01 | 94 | 1012.2 |
| 20260509110505 | 66 | 221 | 0.0 | 0.9 | 0.00 | 0.03 | 0.01 | 94 | 1012.0 |
| 20260509110004 | 66 | 234 | 0.0 | 0.9 | 0.00 | 0.03 | 0.01 | 94 | 1011.9 |
| 20260509105504 | 66 | 234 | 0.0 | 0.9 | 0.00 | 0.03 | 0.01 | 94 | 1011.8 |
| 20260509105005 | 65 | 140 | 0.0 | 0.9 | 0.00 | 0.03 | 0.01 | 94 | 1011.8 |
| 20260509104516 | 65 | 137 | 0.0 | 0.0 | 0.00 | 0.03 | 0.01 | 94 | 1011.8 |
| 20260509104001 | 65 | 137 | 0.0 | 0.0 | 0.00 | 0.03 | 0.01 | 94 | 1011.8 |
| 20260509103505 | 65 | 137 | 0.0 | 0.0 | 0.00 | 0.03 | 0.01 | 94 | 1012.0 |
| 20260509103102 | 65 | 137 | 0.0 | 0.0 | 0.00 | 0.03 | 0.01 | 94 | 1012.0 |
| 20260509102559 | 65 | 137 | 0.0 | 0.0 | 0.00 | 0.03 | 0.01 | 94 | 1012.0 |
| 20260509102056 | 65 | 137 | 0.0 | 0.0 | 0.00 | 0.03 | 0.01 | 94 | 1011.9 |
| 20260509101559 | 65 | 137 | 0.0 | 0.0 | 0.00 | 0.03 | 0.01 | 94 | 1011.9 |
| 20260509101054 | 65 | 137 | 0.0 | 0.0 | 0.00 | 0.03 | 0.01 | 94 | 1012.0 |
| 20260509100554 | 65 | 137 | 0.0 | 0.0 | 0.00 | 0.03 | 0.01 | 94 | 1011.9 |
| 20260509100109 | 65 | 137 | 0.0 | 0.0 | 0.00 | 0.03 | 0.01 | 94 | 1012.0 |
| 20260509100012 | 65 | 137 | 0.0 | 0.0 | 0.00 | 0.03 | 0.01 | 94 | 1012.0 |
| 20260509095601 | 65 | 137 | 0.0 | 0.0 | 0.00 | 0.03 | 0.01 | 94 | 1012.2 |
| 20260509095051 | 65 | 137 | 0.0 | 0.0 | 0.00 | 0.03 | 0.01 | 94 | 1012.4 |
| 20260509094553 | 65 | 137 | 0.0 | 0.0 | 0.00 | 0.03 | 0.01 | 94 | 1012.5 |
| 20260509094052 | 65 | 137 | 0.0 | 0.0 | 0.00 | 0.03 | 0.01 | 93 | 1012.3 |
| 20260509093547 | 65 | 137 | 0.0 | 0.0 | 0.00 | 0.03 | 0.01 | 93 | 1012.3 |
| 20260509093048 | 65 | 137 | 0.0 | 0.0 | 0.00 | 0.03 | 0.01 | 93 | 1012.3 |
| 20260509092547 | 65 | 137 | 0.0 | 0.0 | 0.00 | 0.03 | 0.01 | 93 | 1012.2 |
| 20260509092046 | 65 | 137 | 0.0 | 0.0 | 0.00 | 0.03 | 0.01 | 93 | 1012.1 |
| 20260509091559 | 65 | 137 | 0.0 | 0.0 | 0.00 | 0.03 | 0.01 | 93 | 1012.1 |
| 20260509091045 | 65 | 137 | 0.0 | 0.0 | 0.00 | 0.03 | 0.01 | 93 | 1012.1 |
| 20260509090545 | 65 | 137 | 0.0 | 0.0 | 0.00 | 0.03 | 0.01 | 93 | 1012.1 |
| 20260509090048 | 65 | 137 | 0.0 | 0.0 | 0.00 | 0.03 | 0.01 | 93 | 1012.1 |
| 20260509085544 | 65 | 137 | 0.0 | 0.0 | 0.00 | 0.03 | 0.01 | 93 | 1012.1 |
| 20260509085046 | 65 | 137 | 0.0 | 0.0 | 0.00 | 0.03 | 0.01 | 93 | 1012.1 |
| 20260509084546 | 65 | 137 | 0.0 | 0.9 | 0.00 | 0.03 | 0.01 | 93 | 1012.0 |
| 20260509084045 | 65 | 138 | 0.0 | 0.9 | 0.00 | 0.03 | 0.01 | 93 | 1012.0 |
| 20260509083539 | 65 | 123 | 0.0 | 0.0 | 0.00 | 0.03 | 0.01 | 93 | 1012.0 |
| 20260509083043 | 65 | 123 | 0.0 | 0.0 | 0.00 | 0.03 | 0.01 | 93 | 1012.1 |
| 20260509082538 | 65 | 123 | 0.0 | 0.0 | 0.00 | 0.03 | 0.01 | 93 | 1012.3 |
| 20260509082041 | 65 | 123 | 0.0 | 0.0 | 0.00 | 0.03 | 0.01 | 93 | 1012.2 |
| 20260509081537 | 65 | 123 | 0.0 | 0.0 | 0.00 | 0.03 | 0.01 | 93 | 1012.3 |
| 20260509081037 | 65 | 123 | 0.0 | 0.0 | 0.00 | 0.03 | 0.01 | 93 | 1012.4 |
| 20260509080536 | 65 | 123 | 0.0 | 0.0 | 0.00 | 0.03 | 0.01 | 93 | 1012.4 |
| 20260509080041 | 65 | 123 | 0.0 | 0.0 | 0.00 | 0.03 | 0.01 | 93 | 1012.5 |
| 20260509075532 | 65 | 123 | 0.0 | 0.0 | 0.00 | 0.03 | 0.01 | 93 | 1012.6 |
| 20260509075032 | 65 | 123 | 0.0 | 0.0 | 0.00 | 0.03 | 0.01 | 93 | 1012.6 |
| 20260509074531 | 65 | 123 | 0.0 | 0.0 | 0.00 | 0.03 | 0.01 | 93 | 1012.5 |
| 20260509074035 | 65 | 123 | 0.0 | 0.0 | 0.00 | 0.03 | 0.01 | 93 | 1012.4 |
| 20260509073532 | 65 | 123 | 0.0 | 0.0 | 0.00 | 0.03 | 0.01 | 93 | 1012.5 |
| 20260509073033 | 65 | 123 | 0.0 | 0.0 | 0.00 | 0.03 | 0.01 | 93 | 1012.4 |
| 20260509072529 | 65 | 123 | 0.0 | 0.0 | 0.00 | 0.03 | 0.01 | 93 | 1012.5 |
| 20260509072026 | 66 | 123 | 0.0 | 0.0 | 0.00 | 0.03 | 0.01 | 93 | 1012.6 |
| 20260509071523 | 66 | 123 | 0.0 | 0.0 | 0.00 | 0.03 | 0.01 | 93 | 1012.6 |
| 20260509071022 | 66 | 123 | 0.0 | 0.0 | 0.00 | 0.03 | 0.01 | 92 | 1012.7 |
| 20260509070522 | 66 | 123 | 0.0 | 0.0 | 0.00 | 0.03 | 0.01 | 92 | 1012.8 |
| 20260509070019 | 66 | 123 | 0.0 | 0.0 | 0.00 | 0.03 | 0.01 | 92 | 1013.0 |
| 20260509065518 | 66 | 123 | 0.0 | 0.0 | 0.00 | 0.03 | 0.01 | 92 | 1013.1 |
| 20260509065015 | 66 | 123 | 0.0 | 0.0 | 0.00 | 0.03 | 0.01 | 92 | 1013.2 |
| 20260509064528 | 66 | 123 | 0.0 | 0.0 | 0.00 | 0.03 | 0.01 | 92 | 1013.2 |
| 20260509064014 | 66 | 123 | 0.0 | 0.0 | 0.00 | 0.03 | 0.01 | 92 | 1013.3 |
| 20260509063511 | 66 | 123 | 0.0 | 0.9 | 0.00 | 0.03 | 0.01 | 92 | 1013.3 |
| 20260509063010 | 66 | 123 | 0.0 | 0.9 | 0.00 | 0.03 | 0.01 | 92 | 1013.5 |
| 20260509062510 | 66 | 26 | 0.0 | 0.9 | 0.00 | 0.03 | 0.01 | 92 | 1013.7 |
| 20260509062008 | 66 | 124 | 0.0 | 0.9 | 0.00 | 0.03 | 0.01 | 92 | 1013.8 |
| 20260509061536 | 66 | 162 | 0.0 | 0.0 | 0.00 | 0.03 | 0.01 | 92 | 1013.7 |
| 20260509061009 | 66 | 162 | 0.0 | 0.0 | 0.00 | 0.03 | 0.01 | 92 | 1013.7 |
| 20260509060508 | 66 | 162 | 0.0 | 0.0 | 0.00 | 0.03 | 0.01 | 92 | 1013.8 |
| 20260509060012 | 67 | 162 | 0.0 | 0.0 | 0.00 | 0.03 | 0.01 | 92 | 1013.9 |
| 20260509055505 | 67 | 162 | 0.0 | 0.0 | 0.00 | 0.03 | 0.01 | 92 | 1014.0 |
| 20260509055003 | 67 | 162 | 0.0 | 0.0 | 0.00 | 0.03 | 0.01 | 92 | 1014.0 |
| 20260509054604 | 67 | 162 | 0.0 | 0.0 | 0.00 | 0.03 | 0.01 | 92 | 1014.1 |
| 20260509054502 | 67 | 162 | 0.0 | 0.0 | 0.00 | 0.03 | 0.01 | 92 | 1014.1 |
| 20260509054100 | 67 | 162 | 0.0 | 0.0 | 0.00 | 0.03 | 0.01 | 92 | 1014.1 |
| 20260509053557 | 67 | 162 | 0.0 | 0.0 | 0.00 | 0.03 | 0.01 | 92 | 1014.0 |
| 20260509052555 | 67 | 162 | 0.0 | 0.0 | 0.00 | 0.03 | 0.01 | 92 | 1014.3 |
| 20260509052057 | 67 | 162 | 0.0 | 0.0 | 0.00 | 0.03 | 0.01 | 91 | 1014.3 |
| 20260509052006 | 67 | 162 | 0.0 | 0.0 | 0.00 | 0.03 | 0.01 | 91 | 1014.4 |
| 20260509051553 | 67 | 162 | 0.0 | 0.0 | 0.01 | 0.03 | 0.01 | 91 | 1014.5 |
| 20260509051049 | 67 | 162 | 0.0 | 0.0 | 0.01 | 0.03 | 0.01 | 91 | 1014.6 |
| 20260509050552 | 67 | 162 | 0.0 | 0.0 | 0.01 | 0.03 | 0.01 | 91 | 1014.6 |
| 20260509050050 | 67 | 162 | 0.0 | 0.0 | 0.01 | 0.03 | 0.01 | 91 | 1014.5 |
| 20260509045546 | 67 | 161 | 0.0 | 0.0 | 0.01 | 0.03 | 0.01 | 91 | 1014.7 |
| 20260509045046 | 68 | 256 | 0.0 | 0.0 | 0.01 | 0.03 | 0.01 | 91 | 1015.1 |
| 20260509044549 | 68 | 255 | 0.0 | 0.9 | 0.01 | 0.03 | 0.01 | 91 | 1015.3 |
| 20260509044045 | 68 | 256 | 0.0 | 0.0 | 0.02 | 0.03 | 0.01 | 91 | 1015.3 |
| 20260509043542 | 68 | 256 | 0.0 | 0.0 | 0.03 | 0.03 | 0.01 | 91 | 1015.5 |
| 20260509043042 | 68 | 319 | 0.0 | 1.7 | 0.03 | 0.03 | 0.01 | 90 | 1015.6 |
| 20260509042541 | 68 | 313 | 0.0 | 1.7 | 0.03 | 0.03 | 0.01 | 90 | 1015.5 |
| 20260509042039 | 69 | 317 | 0.0 | 0.0 | 0.03 | 0.03 | 0.01 | 91 | 1015.6 |
| 20260509041537 | 69 | 317 | 0.0 | 2.6 | 0.02 | 0.02 | 0.00 | 91 | 1015.6 |
| 20260509041038 | 69 | 317 | 0.0 | 2.6 | 0.02 | 0.02 | 0.00 | 91 | 1015.7 |
| 20260509040532 | 70 | 57 | 0.0 | 2.6 | 0.02 | 0.02 | 0.00 | 90 | 1015.7 |
| 20260509040036 | 70 | 353 | 0.0 | 2.6 | 0.02 | 0.02 | 0.00 | 90 | 1015.6 |
| 20260509035528 | 70 | 314 | 0.0 | 0.9 | 0.02 | 0.02 | 0.02 | 90 | 1015.8 |
| 20260509035031 | 71 | 221 | 0.0 | 0.9 | 0.02 | 0.02 | 0.02 | 90 | 1015.7 |
| 20260509034531 | 71 | 221 | 0.0 | 0.9 | 0.02 | 0.02 | 0.02 | 89 | 1015.7 |
| 20260509034026 | 71 | 338 | 0.0 | 1.7 | 0.01 | 0.01 | 0.01 | 89 | 1015.5 |
| 20260509033522 | 72 | 138 | 0.0 | 1.7 | 0.00 | 0.00 | 0.00 | 89 | 1015.7 |
| 20260509033025 | 72 | 175 | 0.0 | 2.6 | 0.00 | 0.00 | 0.00 | 89 | 1015.7 |
| 20260509032523 | 72 | 124 | 0.0 | 2.6 | 0.00 | 0.00 | 0.00 | 89 | 1015.6 |
| 20260509032023 | 73 | 144 | 0.0 | 3.5 | 0.00 | 0.00 | 0.00 | 88 | 1015.6 |
| 20260509031522 | 73 | 120 | 0.0 | 3.5 | 0.00 | 0.00 | 0.00 | 89 | 1015.4 |
| 20260509031027 | 73 | 203 | 0.0 | 3.5 | 0.00 | 0.00 | 0.00 | 89 | 1015.3 |
| 20260509030619 | 73 | 321 | 0.0 | 2.6 | 0.00 | 0.00 | 0.00 | 89 | 1015.1 |
| 20260509030020 | 73 | 321 | 0.0 | 2.6 | 0.00 | 0.00 | 0.00 | 89 | 1015.2 |
| 20260509025517 | 73 | 143 | 0.0 | 0.9 | 0.00 | 0.00 | 0.00 | 89 | 1015.1 |
| 20260509025016 | 73 | 135 | 0.0 | 0.9 | 0.00 | 0.00 | 0.00 | 89 | 1015.1 |
| 20260509024516 | 73 | 150 | 0.0 | 1.7 | 0.00 | 0.00 | 0.00 | 89 | 1015.2 |
| 20260509024018 | 73 | 341 | 0.0 | 1.7 | 0.00 | 0.00 | 0.00 | 89 | 1015.2 |
| 20260509023514 | 73 | 241 | 0.0 | 0.9 | 0.00 | 0.00 | 0.00 | 89 | 1015.2 |
| 20260509023019 | 73 | 294 | 0.0 | 0.9 | 0.00 | 0.00 | 0.00 | 89 | 1015.1 |
| 20260509022517 | 72 | 294 | 0.0 | 0.9 | 0.00 | 0.00 | 0.00 | 89 | 1015.1 |
| 20260509022012 | 72 | 321 | 0.0 | 0.9 | 0.00 | 0.00 | 0.00 | 89 | 1015.0 |
| 20260509021512 | 72 | 325 | 0.0 | 0.0 | 0.00 | 0.00 | 0.00 | 89 | 1015.0 |
| 20260509021013 | 72 | 325 | 0.0 | 0.0 | 0.00 | 0.00 | 0.00 | 89 | 1014.8 |
| 20260509020512 | 72 | 326 | 0.0 | 0.0 | 0.00 | 0.00 | 0.00 | 89 | 1014.8 |
| 20260509020008 | 72 | 326 | 0.0 | 0.0 | 0.00 | 0.00 | 0.00 | 89 | 1014.5 |
| 20260509015509 | 72 | 308 | 0.0 | 0.0 | 0.00 | 0.00 | 0.00 | 89 | 1014.4 |